OBJECT-B, 65489

Orbit data source: Space-Track

OBJECT-B, 65489 is a Chinese satellite in SSO that was launched on Fri, 05 Sep 2025 UTC via a GUSHENXING 1 launch vehicle from the Jiuquan Satellite Launch Center, China (JSC). Unknown objects in Earth's orbit typically refer to objects detected orbiting the Earth but have not yet been identified or cataloged. These objects could be anything from previously untracked satellites, spent rocket stages, debris from satellite collisions, or even natural meteoroids temporarily captured by Earth's gravity.

Loading next visibility...
Identifier
65489, 2025-197B
Orbit
SSO
Country
Flag of CNCN / PRC
Related business
None
Manufacturer
Unknown
Mission
Operational spacecraft
Bus & Motor
Unknown
Mass
Unknown
Launch date (UTC)
2025-09-05 (2 weeks ago)
Launch vehicle
GUSHENXING 1
Launch site
Jiuquan Satellite Launch Center, China (JSC)
Object type
Unknown
Shape & HBR
Unknown
Radar Cross Section
Medium (>0.1 m² and <1 m²)

Expand to show TLE details & history
Last TLE update: 1 week ago

TLE from 1 week ago
0 OBJECT-B
1 65489U 25197B   25251.16057737  .00005565  00000-0  25580-3 0  9991
2 65489  97.4117  76.9325 0013221 277.6459  82.3275 15.20695336   405
Epoch: 2025-09-08T03:51Z
TLE epoch observation values (Epoch: 2025-09-08T03:51:13.884Z)
Latitude
-0.00002°
Longitude
31.65497°
Altitude
505.63 km
Speed
7.612 km/s
True Right ascension
05h 07m 43s
True Declination
0° 00' 00"
Sunlit
Object was in daylight at epoch
Visualization orbit readout
Latitude
Unknown
Longitude
Unknown
Altitude
Unknown
Speed
Unknown
Apparent Right ascension
Unknown
Apparent Declination
Unknown
Sunlit
N/A
Visualization observer readout
Local Sidereal Time
00:37:41
Azimuth
Unknown
Elevation
Unknown
Doppler factor
Unknown
Orbital elements
Apogee altitude
509.802 km
Perigee altitude
491.613 km
Semi-major axis
6,878.844 km
Eccentricity
0.00132
Inclination
97.4117°
RAAN
76.9325°
Arg. of periapsis
277.6459°
True anomaly
82.47768°
Mean anomaly
82.3275°
Eccentric anomaly
82.40259°
Mean motion
3.80426 °/min
Orbital period
94.63 mins
BSTAR
0.0002558
Loading maneuver chart data...
Computing Atmospheric mass density...
Loading historical data...
Loading historical data...
Loading historical data...
Loading historical data...
Loading historical data...
Loading historical data...
Loading historical data...
Other satellites on launch #197 in the year 2025 (2025-09-05 UTC)

Documentation

Showing up to 5 results
|